Regional Weather Roundup
Issued by NWS Wilmington, NC

Home | Current Version | Previous Version | Text Only | Print | Product List | Glossary On
Versions: 1 2 3 4 5 6 7 8 9 10 11 12 13 14 15 16 17 18 19 20 21 22 23 24 25 26
000
ASUS42 KILM 261913
RWRILM
RWRILM
REGIONAL HOURLY WEATHER ROUNDUP
NATIONAL WEATHER SERVICE WILMINGTON NC
300 PM EDT WED APR 26 2017

NOTE: "FAIR" INDICATES FEW OR NO CLOUDS BELOW 12,000 FEET WITH NO
SIGNIFICANT WEATHER AND/OR OBSTRUCTIONS TO VISIBILITY.

...............WFO WILMINGTON COUNTY WARNING AREA...............

......COASTAL NC AND SC COUNTIES......

CITY           SKY/WX    TMP DP  RH WIND       PRES   REMARKS
WILMINGTON     PTSUNNY   80  61  52 SW9       29.81F
N MYRTLE BEACH SUNNY     73  66  78 S13       29.83F
MYRTLE BEACH   MOSUNNY   73  66  78 S15       29.85F

......INLAND NC AND SC COUNTIES.......

CITY           SKY/WX    TMP DP  RH WIND       PRES   REMARKS
LUMBERTON      PTSUNNY   80  64  58 S8        29.79F
ELIZABETHTOWN  MOSUNNY   80  62  53 SW8       29.81F
WHITEVILLE     MOSUNNY   81  62  51 SW7       29.81F
FLORENCE       PTSUNNY   83  63  50 S7        29.81S
DARLINGTON     MOSUNNY   81  63  54 S13       29.81F
KINGSTREE      FAIR      82  57  42 SW7       29.82S
HARTSVILLE     PTSUNNY   81  57  44 SW7       29.80F
BENNETTSVILLE  FAIR      82  64  54 S9        29.80S
CONWAY         CLOUDY    79  66  65 SE5       29.81F
GEORGETOWN     CLOUDY    79  63  57 SE5       29.83F
MARION         PTSUNNY   81  61  50 SW13      29.81F

....................REST OF NORTH CAROLINA......................

.........EASTERN NC.........

CITY           SKY/WX    TMP DP  RH WIND       PRES   REMARKS
CAPE HATTERAS  SUNNY     73  59  61 W7G17     29.82F
JACKSONVILLE   SUNNY     80  64  58 S10       29.81F
MOREHEAD CITY  SUNNY     72  65  78 SW20      29.82F
KENANSVILLE    MOSUNNY   79  63  57 SW7       29.80F
NEW BERN       MOSUNNY   78  63  59 W5        29.81F
ELIZABETH CITY CLOUDY    71  61  70 SW8       29.79F

.........CENTRAL NC.........

CITY           SKY/WX    TMP DP  RH WIND       PRES   REMARKS
RALEIGH DURHAM PTSUNNY   77  63  61 SW9       29.80F
ROCKY MOUNT    PTSUNNY   76  62  62 W12       29.79F
ROANOKE RAPIDS NOT AVBL
FAYETTEVILLE   SUNNY     82  62  50 S14       29.79F
HOFFMAN        SUNNY     81  60  48 SW14      29.79F

.........WESTERN NC.........

CITY           SKY/WX    TMP DP  RH WIND       PRES   REMARKS
CHARLOTTE      MOSUNNY   79  62  56 VRB6      29.81F
GREENSBORO     MOSUNNY   75  62  64 SW6       29.79F
HICKORY        NOT AVBL
BOONE          NOT AVBL
ASHEVILLE      NOT AVBL

.....................REST OF SOUTH CAROLINA.....................

.........EASTERN SC.........

CITY           SKY/WX    TMP DP  RH WIND       PRES   REMARKS
CHARLESTON     MOSUNNY   81  59  47 SW14      29.82F
BEAUFORT MCAS  SUNNY     82  63  52 S9        29.83F
HILTON HEAD    SUNNY     79  57  47 SE12      29.85F

.........CENTRAL SC.........

CITY           SKY/WX    TMP DP  RH WIND       PRES   REMARKS
COLUMBIA       MOSUNNY   86  58  38 SW8       29.79F
ORANGEBURG     PTSUNNY   81  59  47 S10       29.81F
SUMTER SHAW    MOSUNNY   84  59  42 S9G18     29.78F

.........WESTERN SC.........

CITY           SKY/WX    TMP DP  RH WIND       PRES   REMARKS
GREENVILLE     NOT AVBL
ROCK HILL      SUNNY     79  58  48 W9G17     29.81F
ANDERSON       SUNNY     81  58  45 SW12      29.80F
CLEMSON        NOT AVBL
GREENWOOD      LGT RAIN  81  56  42 SW13G21   29.82F


...................COASTAL AND OFFSHORE REPORTS..................

................LOCAL PIERS AND NC RESERVE................


STATION/POSITION TIME  SKY/WX   TEMP    WIND        PRES    VSBY
                                AIR SEA DIR/SP/G
                 (UTC)          (F)     (DEG/KT/KT) (MB)    (MI)
JOHNY MRCER PIER 1848            73 72  180/ 16/ 19 1008.5F
NC RESRV MASNBRO 1745            79     200/  3     1011.0
OCEAN CREST PIER NOT AVBL
SPRINGMAID  PIER 1848                               1009.6F


................COASTAL AND OFFSHORE BUOYS................


STATION/POSITION TIME  SKY/WX   TEMP    WIND        PRES    VSBY
                                AIR SEA DIR/SP/G
                 (UTC)          (F)     (DEG/KT/KT) (MB)    (MI)
DIMNDSHOAL 41025 1850            69 77  260/ 12/ 16 1010.1S
WVE H/P(F/S)=  6/10 SWL H/P/D(F/S/D)=  5/130/10

CAPE LOOKOUT     1900            70     210/ 14/ 16 1009.7F
ONSLOW BAY 41036 NOT AVBL
ONSLOW BAY 41064 1808            68     230/  8/ 10 1011.3F
ONSLOW BAY 41159 1843               72                N/A
WVE H/P(F/S)=  4/ 9 SWL H/P/D(F/S/D)=  2/120/11

MASNBO INL 41110 1859               71                N/A
WVE H/P(F/S)=  3/10 SWL H/P/D(F/S/D)=  2/130/11

WILM HARBR 41108 1847               73                N/A
WVE H/P(F/S)=  3/ 9

27SE WRITB 41037 1808            70 72  190/  6/  8 1010.3F
FRYING PAN 41013 1900            73 75  180/  8/ 12 1010.4
SUNST NRSH 41024 1808            69 71  170/  6/  8 1010.6F
CAPRS NRSH 41029 1808            74 73  220/ 14/ 19 1010.7F
EDISTO     41004 1850            72 73  220/ 12/ 16 1011.0F
WVE H/P(F/S)=  4/ 8 SWL H/P/D(F/S/D)=  3/140/ 8



..........OFFSHORE BUOYS BEYOND 100 NM OFFSHORE...........
.....IN A TRIANGLE---HAT TO BERMUDA TO BAHAMAS TO HAT.....


STATION/POSITION TIME  SKY/WX   TEMP    WIND        PRES    VSBY
                                AIR SEA DIR/SP/G
                 (UTC)          (F)     (DEG/KT/KT) (MB)    (MI)
150E HAT   41001 1900            72 74  210/ 12/ 17 1010.5
W BERMUDA  41048 1900            72 71  210/ 10/ 12 1015.3
ATLANTIC S 41049 1850            73 72  110/ 10/ 12 1019.2F
WVE H/P(F/S)=  6/ 7 SWL H/P/D(F/S/D)=  5/170/ 7

E BAHAMAS  41046 1900            77 78  140/  8/ 10 1015.5
NE BAHAMAS 41047 1900            76 76  190/  6/  8 1015.9
120E CANVRL41010 1900            76 78  230/ 12/ 16 1012.5

END




USA.gov is the U.S. government's official web portal to all federal, state and local government web resources and services.